Regional Weather Roundup
Issued by NWS Newport/Morehead, NC

Current Version | Previous Version | Graphics & Text | Print | Product List | Glossary On
Versions: 1 2 3 4 5 6 7 8 9 10 11 12 13 14 15 16 17 18 19 20 21 22 23 24 25 26 27 28 29 30 31 32 33 34 35 36 37 38 39 40 41 42 43 44 45 46 47 48 49 50
000 ASUS42 KMHX 050113 RWRMHX WEATHER ROUNDUP FOR EASTERN NORTH CAROLINA NATIONAL WEATHER SERVICE NEWPORT/MOREHEAD CITY NC 900 PM EDT SAT JUL 04 2015 NOTE: "FAIR" INDICATES FEW OR NO CLOUDS BELOW 12,000 FEET WITH NO SIGNIFICANT WEATHER AND/OR OBSTRUCTIONS TO VISIBILITY NCZ015>017-031-032-045>047-102-103-050200- NORTH COAST CITY SKY/WX TMP DP RH WIND PRES REMARKS EDENTON N/A 80 73 79 W3 29.99R ELIZABETH CITY MOCLDY 77 72 84 SW7 29.98R KITTY HAWK PTCLDY 77 71 81 CALM 29.98R MANTEO CLEAR 77 72 83 W5 30.00R $$ NCZ045>047-081-094-103-104-050200- CENTRAL COAST CITY SKY/WX TMP DP RH WIND PRES REMARKS FRISCO MOCLDY 79 73 82 SW14 30.01R SWANQUARTER N/A 82 N/A N/A SW15G22 29.97R $$ NCZ095-097-098-100-101-050200- SOUTHERN COAST CITY SKY/WX TMP DP RH WIND PRES REMARKS BEAUFORT PTCLDY 80 76 87 SW18G26 30.03R CEDAR ISLAND N/A 82 N/A N/A SW12G18 30.06R JACKSONVILLE MOCLDY 82 72 71 S5 30.02R PINEY ISLAND MOCLDY N/A N/A N/A SW15 30.02R WILMINGTON MOCLDY 81 72 74 SW13G20 30.04R $$ NCZ011>013-027>030-043-044-078>080-089-090>093-098-050200- COASTAL PLAIN CITY SKY/WX TMP DP RH WIND PRES REMARKS AHOSKIE PTCLDY N/A N/A N/A CALM 29.98S CLINTON CLOUDY 81 71 70 CALM 30.03R ELIZABETHTOWN MOCLDY 82 71 68 S3 30.03R GOLDSBORO MOCLDY 83 69 63 SW5 29.99R GREENVILLE MOCLDY 81 70 69 SW6 30.02R HAVELOCK PTCLDY 82 72 71 SW12 30.03R KENANSVILLE MOCLDY 81 67 60 CALM 30.03R KINSTON MOCLDY 82 68 61 SW9 30.01R NEW BERN PTCLDY 80 71 74 SW3 30.03R RICHLANDS MOCLDY 81 66 61 SW5 30.03R ROCKY MOUNT PTCLDY 74 73 97 CALM 29.99S WASHINGTON PTCLDY 81 68 63 SW10 30.00R WHITEVILLE PTCLDY 81 71 72 CALM 30.04R $$ AMZ130-135-150-152-154-156-158-170-250-252-270-ANZ085-086-088-633-658-670-050200- MARINE OBSERVATIONS STATION/POSITION TIME TEMP WIND PRES WAVE SWELL AIR SEA DIR/SP/G HT/PER HT/PER (UTC) (F) (DEG/KT/KT) (MB) (FT/S) (FT/S) CHESAPEAKE LIGHT 0100 79 230/ 16/ 17 1014.3 64 E VA BEACH 0050 78 77 230/ 12/ 14 1013.9 5/ 7 5/ 7 DUCK 0000 80 72 230/ 11/ 13 N/A 2 E DUCK 0011 77 N/A 2/14 OREGON INLET 0000 79 82 200/ 9/ 10 1014.9 13E OREGON INLT 0000 71 N/A 4/ 7 2/14 HATTERAS CG 0000 80 80 220/ 11/ 18 1015.6 DIAMOND BUOY 0050 82 81 220/ 21/ 25 1015.9 6/ 6 2/ 9 CAPE LOOKOUT 0100 80 220/ 13/ 17 1016.7 BEAUFORT LAB 0000 81 81 220/ 12/ 19 1015.6 30 SE NEW RVR IN NOT AVBL 27 SE WRIGHTSVLE 0000 80 230/ 17/ 21 N/A 5 SE WRIGHTSVLE 0008 80 79 220/ 17/ 21 1016.5 225 S CAPE HAT 0050 82 80 220/ 8/ 10 1021.2 4/ 6 3/ 6 41 SE CHARLESTON 0050 82 82 230/ 17/ 19 1018.4 3/ 9 2/ 9 $$

USA.gov is the U.S. government's official web portal to all federal, state and local government web resources and services.